Location: Cardiff
(53.7833°N, 113.6000°W)
Time: 20:54:03
(UTC+00:00)

Oscar 19 - Pass Details

Date: 06 December 2023
Orbit: 771 x 789 km, 98.9° (Epoch: 04 March)

Event Time Altitude Azimuth Distance (km) Brightness Sun altitude
Rises 01:04:09 0° 225° (SW) 3,239 15.0 -14.9°
Reaches altitude 10° 01:08:20 10° 259° (W) 2,320 14.5 -15.5°
Maximum altitude 01:09:54 11° 277° (W) 2,233 14.0 -15.8°
Drops below altitude 10° 01:11:29 10° 295° (WNW) 2,327 13.8 -16.0°
Sets 01:15:44 0° 329° (NNW) 3,265 14.1 -16.6°
